DW6062 Weather Reports


time (UTC)temp
F
wind
direction
speed
knots
gust
knots
rain 1hr
in
rain 24hr
in
rain mn
in
humidity
%
barometer
mb
20260510135608 51 13 1.7 7.0 0.00 0.17 0.00 67 1017.0
20260510135108 50 64 1.7 7.0 0.00 0.17 0.00 67 1017.2
20260510134608 51 15 2.6 7.0 0.00 0.17 0.00 68 1017.0
20260510134107 50 29 4.3 7.0 0.00 0.18 0.00 69 1016.9
20260510133608 50 173 0.9 5.2 0.00 0.18 0.00 70 1017.1
20260510133108 49 5 2.6 5.2 0.00 0.19 0.00 69 1016.8
20260510132608 49 32 0.9 1.7 0.00 0.19 0.00 70 1016.9
20260510132107 50 93 1.7 1.7 0.00 0.20 0.00 70 1016.7
20260510131608 49 182 0.9 5.2 0.00 0.20 0.00 71 1016.8
20260510131108 49 130 0.9 5.2 0.00 0.21 0.00 72 1016.7
20260510130608 48 138 0.9 4.3 0.00 0.22 0.00 73 1016.8
20260510125607 48 74 1.7 7.0 0.00 0.23 0.00 72 1016.5
20260510125108 48 38 2.6 4.3 0.00 0.24 0.00 72 1016.4
20260510124608 48 38 2.6 7.0 0.00 0.24 0.00 72 1016.3
20260510124108 48 192 0.9 6.1 0.00 0.24 0.00 74 1016.1
20260510123608 47 143 0.9 0.9 0.00 0.25 0.00 77 1015.9
20260510122608 47 143 0.9 1.7 0.00 0.26 0.00 77 1015.9
20260510122108 48 176 0.9 1.7 0.00 0.27 0.00 77 1015.7
20260510121608 48 186 0.9 0.9 0.00 0.27 0.00 78 1015.6
20260510121108 48 186 0.9 5.2 0.00 0.27 0.00 78 1015.5
20260510120608 48 34 4.3 5.2 0.00 0.27 0.00 77 1015.6
20260510120108 48 34 4.3 5.2 0.00 0.27 0.00 77 1015.7
20260510115608 48 180 0.9 0.9 0.00 0.27 0.00 76 1015.3
20260510115107 48 180 0.9 0.9 0.00 0.27 0.00 76 1015.2
20260510114108 47 159 0.9 0.9 0.00 0.27 0.00 76 1015.0
20260510113608 47 159 0.9 0.9 0.00 0.27 0.00 76 1014.8
20260510113107 47 159 0.9 0.9 0.00 0.27 0.00 76 1014.7
20260510112608 47 159 0.9 0.9 0.00 0.27 0.00 76 1014.8
20260510112108 47 159 0.9 0.9 0.00 0.27 0.00 76 1014.7
20260510111608 47 159 0.9 0.9 0.00 0.27 0.00 76 1014.9
20260510110608 45 184 0.0 0.0 0.00 0.27 0.00 82 1014.3
20260510110108 45 184 0.0 0.0 0.00 0.27 0.00 82 1014.2
20260510105608 45 184 0.0 0.0 0.00 0.27 0.00 82 1014.1
20260510105108 45 184 0.0 0.0 0.00 0.27 0.00 82 1014.0
20260510104108 45 184 0.0 0.0 0.00 0.27 0.00 82 1014.0
20260510103608 45 184 0.0 0.0 0.00 0.27 0.00 82 1013.9
20260510103108 45 184 0.0 0.0 0.00 0.27 0.00 82 1013.8
20260510102608 45 184 0.0 0.0 0.00 0.27 0.00 82 1013.3
20260510102108 45 184 0.0 0.0 0.00 0.27 0.00 82 1013.4
20260510101608 45 184 0.0 0.0 0.00 0.27 0.00 82 1013.4
20260510100608 45 184 0.0 0.0 0.00 0.27 0.00 82 1013.2
20260510100108 45 184 0.0 0.0 0.00 0.27 0.00 82 1013.1
20260510095607 45 184 0.0 0.0 0.00 0.27 0.00 82 1013.0
20260510095108 45 184 0.0 0.0 0.00 0.27 0.00 82 1012.8
20260510024609 54 188 0.0 0.0 0.00 0.27 0.09 88 1008.7
20260510024110 55 178 0.0 0.0 0.00 0.27 0.09 88 1008.6
20260510023610 55 163 0.0 0.0 0.01 0.27 0.09 87 1009.0
20260510023110 55 189 0.0 0.0 0.01 0.27 0.09 87 1008.7
20260510022609 56 187 0.0 0.0 0.02 0.27 0.09 87 1008.6
20260510022110 56 188 0.0 0.0 0.02 0.27 0.09 87 1008.8
20260510021609 56 195 0.0 0.0 0.02 0.27 0.09 86 1008.8
20260510021109 56 189 0.0 0.0 0.02 0.27 0.09 86 1008.7
20260510020610 56 177 0.0 0.9 0.02 0.27 0.09 85 1008.5
20260510020110 56 187 0.0 0.9 0.02 0.27 0.09 85 1008.2
20260510015610 56 183 0.9 1.7 0.02 0.27 0.09 85 1008.5
20260510015110 56 197 0.9 1.7 0.02 0.27 0.09 85 1008.0
20260510014609 56 222 2.6 4.3 0.02 0.27 0.09 86 1007.9
20260510014109 56 128 2.6 8.7 0.02 0.27 0.09 86 1007.8
20260510013610 55 115 1.7 8.7 0.01 0.28 0.08 88 1008.5
20260510013110 55 196 0.0 1.7 0.01 0.29 0.08 88 1008.3
20260510012609 55 214 0.9 0.9 0.00 0.31 0.07 88 1008.0
20260510012109 55 189 0.0 0.0 0.00 0.31 0.07 88 1007.8
20260510011610 55 189 0.0 0.0 0.00 0.31 0.07 88 1007.9
20260510011110 55 186 0.0 1.7 0.00 0.32 0.07 88 1007.7
20260510010110 55 186 0.0 1.7 0.00 0.32 0.07 87 1007.6
20260510005110 55 192 0.0 0.9 0.00 0.33 0.07 87 1007.5
20260510004609 55 190 0.0 0.9 0.01 0.33 0.07 86 1007.3
20260510004110 56 170 0.0 0.0 0.01 0.33 0.07 86 1007.3
20260510003610 56 187 0.0 0.0 0.02 0.33 0.07 86 1007.4
20260510003110 56 185 0.0 0.0 0.02 0.33 0.07 85 1007.4
20260510002609 56 183 0.0 0.9 0.02 0.33 0.07 84 1007.2
20260510002109 56 187 0.0 0.9 0.02 0.33 0.07 84 1007.4
20260510001610 56 186 0.0 1.7 0.05 0.33 0.07 84 1007.1
20260510000610 56 188 0.9 1.7 0.07 0.33 0.07 84 1007.5
20260510000110 56 192 1.7 2.6 0.07 0.34 0.07 85 1007.5
20260509235609 56 212 0.9 2.6 0.07 0.34 0.07 86 1007.6
20260509234609 56 198 1.7 2.6 0.06 0.33 0.06 86 1008.0
20260509234110 56 349 1.7 5.2 0.06 0.33 0.06 86 1007.7
20260509233610 56 1 2.6 6.1 0.05 0.32 0.05 85 1007.7
20260509233110 56 36 2.6 6.1 0.05 0.32 0.05 85 1007.5
20260509232610 56 171 1.7 5.2 0.05 0.32 0.05 84 1007.9
20260509232110 57 45 1.7 7.0 0.05 0.32 0.05 82 1007.6
20260509231609 59 288 1.7 8.7 0.02 0.29 0.02 79 1007.8
20260509231109 61 89 3.5 8.7 0.00 0.27 0.00 71 1007.3
20260509230610 67 6 7.0 13.9 0.00 0.27 0.00 62 1007.1
20260509225609 67 218 4.3 7.0 0.00 0.27 0.00 58 1006.0
20260509224609 68 211 5.2 8.7 0.00 0.27 0.00 56 1005.9
20260509223610 69 230 3.5 11.3 0.00 0.27 0.00 55 1005.7
20260509223109 68 219 2.6 8.7 0.00 0.27 0.00 55 1005.7
20260509222109 68 247 7.0 15.6 0.00 0.27 0.00 54 1005.6
20260509221610 68 227 5.2 14.8 0.00 0.27 0.00 54 1005.5
20260509221109 68 181 5.2 10.4 0.00 0.27 0.00 54 1005.7
20260509220610 69 236 5.2 14.8 0.00 0.27 0.00 54 1005.6
20260509220110 68 214 5.2 10.4 0.00 0.27 0.00 53 1005.4
20260509215609 68 247 6.1 14.8 0.00 0.27 0.00 54 1005.7
20260509215110 69 209 6.1 17.4 0.00 0.27 0.00 54 1005.6
20260509214610 70 120 4.3 10.4 0.00 0.27 0.00 53 1005.5
20260509214110 69 249 5.2 8.7 0.00 0.27 0.00 53 1005.5
20260509213609 69 227 7.0 17.4 0.00 0.27 0.00 53 1005.5
20260509212609 70 226 7.8 10.4 0.00 0.27 0.00 54 1005.7
20260509212110 70 248 6.1 10.4 0.00 0.27 0.00 53 1005.4
20260509211609 70 208 5.2 8.7 0.00 0.27 0.00 55 1005.5
20260509210610 70 232 6.1 14.8 0.00 0.27 0.00 55 1005.6
20260509205610 69 209 6.1 13.0 0.00 0.27 0.00 54 1005.7
20260509205110 70 244 5.2 13.0 0.00 0.27 0.00 54 1005.9
20260509204610 69 229 6.1 13.0 0.00 0.27 0.00 55 1005.8
20260509204110 69 142 7.0 12.2 0.00 0.27 0.00 55 1005.9
20260509203609 69 237 5.2 12.2 0.00 0.27 0.00 57 1006.0
20260509203109 69 211 6.1 17.4 0.00 0.27 0.00 56 1006.2
20260509202609 70 260 5.2 17.4 0.00 0.27 0.00 55 1006.4
20260509202110 69 212 4.3 6.1 0.00 0.27 0.00 56 1006.3
20260509201609 69 205 6.1 13.0 0.00 0.27 0.00 57 1006.4
20260509201109 70 135 5.2 11.3 0.00 0.27 0.00 55 1006.4
20260509200109 69 227 4.3 7.8 0.00 0.27 0.00 57 1006.5
20260509195109 69 182 6.1 8.7 0.00 0.27 0.00 57 1006.6
20260509194610 69 207 8.7 14.8 0.00 0.27 0.00 57 1006.6
20260509194109 69 220 5.2 10.4 0.00 0.27 0.00 58 1006.6
20260509193610 69 248 4.3 11.3 0.00 0.27 0.00 59 1006.7
20260509192610 69 219 6.1 14.8 0.00 0.27 0.00 58 1007.0
20260509192109 69 210 3.5 8.7 0.00 0.27 0.00 58 1007.0
20260509191609 68 210 6.1 10.4 0.00 0.27 0.00 57 1006.8
20260509191110 68 225 8.7 17.4 0.00 0.27 0.00 56 1006.8
20260509190609 68 246 5.2 10.4 0.00 0.27 0.00 58 1006.9
20260509190109 68 143 8.7 13.9 0.00 0.27 0.00 59 1007.0
20260509185609 68 252 7.8 13.9 0.00 0.27 0.00 59 1006.8
20260509185109 67 249 7.8 14.8 0.00 0.27 0.00 59 1007.1
20260509184109 68 269 7.0 19.1 0.00 0.27 0.00 58 1007.0
20260509183610 67 180 5.2 12.2 0.00 0.27 0.00 63 1007.4
20260509183110 67 211 7.8 11.3 0.00 0.27 0.00 62 1007.2
20260509182609 66 237 5.2 10.4 0.00 0.27 0.00 62 1007.1
20260509182109 65 194 6.1 14.8 0.00 0.27 0.00 63 1007.4
20260509181610 65 233 5.2 7.8 0.00 0.27 0.00 64 1007.5
20260509181109 65 230 4.3 13.9 0.00 0.27 0.00 66 1007.4
20260509180610 64 231 7.8 13.9 0.00 0.27 0.00 65 1007.1
20260509180109 65 156 5.2 12.2 0.00 0.27 0.00 63 1007.2
20260509175109 64 184 2.6 7.8 0.00 0.27 0.00 66 1007.5
20260509174609 64 231 4.3 7.8 0.00 0.27 0.00 65 1007.6
20260509174109 64 214 7.0 11.3 0.00 0.27 0.00 65 1007.5
20260509173609 64 259 4.3 11.3 0.00 0.27 0.00 66 1007.7
20260509173109 64 210 4.3 12.2 0.00 0.27 0.00 67 1007.5
20260509172609 64 249 6.1 13.9 0.00 0.27 0.00 67 1007.4
20260509172109 64 219 4.3 12.2 0.00 0.27 0.00 67 1007.6
20260509171609 64 199 5.2 12.2 0.00 0.27 0.00 68 1007.7
20260509171109 64 171 5.2 12.2 0.00 0.27 0.00 67 1007.8
20260509170610 64 219 5.2 12.2 0.00 0.27 0.00 66 1007.8
20260509170109 64 186 6.1 11.3 0.00 0.28 0.00 68 1007.6
20260509165609 64 137 1.7 7.0 0.00 0.28 0.00 68 1007.7
20260509165110 64 224 1.7 2.6 0.00 0.28 0.00 69 1007.6
20260509164609 64 224 1.7 6.1 0.00 0.28 0.00 69 1007.7
20260509164110 64 236 4.3 8.7 0.00 0.28 0.00 68 1007.7
20260509163609 62 260 1.7 5.2 0.00 0.28 0.00 68 1007.7
20260509163109 63 224 4.3 7.0 0.00 0.28 0.00 70 1007.5
20260509162109 62 280 5.2 7.8 0.00 0.28 0.00 70 1007.5
20260509161609 62 213 5.2 7.8 0.00 0.28 0.00 70 1007.6
20260509161110 62 216 4.3 6.1 0.00 0.28 0.00 71 1007.6
20260509160609 62 151 1.7 5.2 0.00 0.28 0.00 71 1007.8
20260509160109 61 187 2.6 7.8 0.00 0.28 0.00 71 1007.9
20260509155609 61 230 4.3 7.0 0.00 0.29 0.00 72 1008.0
20260509154609 60 207 3.5 6.1 0.00 0.30 0.00 73 1008.0
20260509154109 60 248 4.3 7.8 0.00 0.30 0.00 72 1007.9
20260509153609 61 253 3.5 8.7 0.00 0.30 0.00 72 1007.9
20260509153110 60 245 1.7 7.0 0.00 0.30 0.00 72 1008.0
20260509152609 59 235 2.6 7.0 0.00 0.30 0.00 75 1008.3
20260509152109 59 251 2.6 7.0 0.00 0.30 0.00 77 1008.1
20260509151610 59 97 1.7 7.0 0.00 0.31 0.00 76 1007.9
20260509150610 58 226 2.6 7.8 0.00 0.31 0.00 77 1008.0
20260509145610 58 234 6.1 7.8 0.00 0.31 0.00 78 1008.1
20260509144109 56 230 5.2 7.8 0.00 0.31 0.00 82 1008.2
20260509143610 56 222 5.2 7.8 0.00 0.31 0.00 82 1008.0
20260509143109 57 221 4.3 7.0 0.00 0.31 0.00 82 1008.0
20260509142109 56 237 2.6 7.0 0.00 0.31 0.00 84 1007.9
20260509141609 56 224 4.3 12.2 0.00 0.31 0.00 84 1008.2
20260509141109 56 234 5.2 10.4 0.00 0.31 0.00 85 1007.8
20260509140609 56 245 2.6 12.2 0.00 0.31 0.00 86 1007.7